• In Belarus
  • List of Countries
  • For 7 days
  • Water Temperature
  • Satellite Maps
  • Weather Map
  • Weather Widgets
  • user-avatar
    Login

    Hourly Weather Szynkarzyzna

    Today, 22 October, Monday

    Time Temperature Precipitation Wind Pressure Humidity
    00:00 +6°C° 0 mm 1 mps 762 mmHg 84%
    01:00 +6°C° 0 mm 1 mps 762 mmHg 86%
    02:00 +6°C° 0 mm 1 mps 761 mmHg 87%
    03:00 +6°C° 0 mm 1 mps 761 mmHg 88%
    04:00 +5°C° 0 mm 1 mps 761 mmHg 89%
    05:00 +4°C° 0 mm 2 mps 761 mmHg 89%
    06:00 +4°C° 0 mm 2 mps 761 mmHg 89%
    07:00 +4°C° 0 mm 2 mps 761 mmHg 89%
    08:00 +5°C° 0 mm 3 mps 760 mmHg 80%
    09:00 +8°C° 0 mm 3 mps 760 mmHg 71%
    10:00 +10°C° 0 mm 4 mps 760 mmHg 63%
    11:00 +11°C° 0 mm 4 mps 759 mmHg 59%
    12:00 +11°C° 0 mm 4 mps 758 mmHg 56%
    13:00 +12°C° 0 mm 4 mps 758 mmHg 53%
    14:00 +12°C° 0 mm 4 mps 757 mmHg 56%
    15:00 +11°C° 0 mm 4 mps 757 mmHg 59%
    16:00 +11°C° 0 mm 4 mps 756 mmHg 62%
    17:00 +10°C° 0.2 mm 4 mps 756 mmHg 67%
    18:00 +10°C° 0.2 mm 4 mps 756 mmHg 73%
    19:00 +10°C° 0.2 mm 4 mps 756 mmHg 78%
    20:00 +8°C° 0.3 mm 4 mps 756 mmHg 80%
    21:00 +7°C° 0.3 mm 4 mps 756 mmHg 81%
    22:00 +7°C° 0.3 mm 4 mps 756 mmHg 83%
    23:00 +6°C° 0 mm 4 mps 756 mmHg 85%

    Tomorrow, 23 October, Tuesday

    Time Temperature Precipitation Wind Pressure Humidity
    00:00 +5°C° 0 mm 4 mps 756 mmHg 87%
    01:00 +4°C° 0 mm 4 mps 756 mmHg 89%
    02:00 +4°C° 0 mm 4 mps 756 mmHg 89%
    03:00 +4°C° 0 mm 4 mps 756 mmHg 89%
    04:00 +3°C° 0 mm 4 mps 755 mmHg 90%
    05:00 +4°C° 0 mm 4 mps 755 mmHg 88%
    06:00 +4°C° 0 mm 4 mps 754 mmHg 87%
    07:00 +3°C° 0 mm 5 mps 754 mmHg 85%
    08:00 +4°C° 0.1 mm 6 mps 753 mmHg 80%
    09:00 +5°C° 0.1 mm 7 mps 752 mmHg 75%
    10:00 +6°C° 0.1 mm 7 mps 752 mmHg 70%
    11:00 +5°C° 0.5 mm 8 mps 750 mmHg 72%
    12:00 +5°C° 0.5 mm 9 mps 748 mmHg 74%
    13:00 +5°C° 0.5 mm 9 mps 747 mmHg 75%
    14:00 +5°C° 1.5 mm 10 mps 745 mmHg 77%
    15:00 +5°C° 1.5 mm 10 mps 743 mmHg 79%
    16:00 +4°C° 1.5 mm 11 mps 742 mmHg 81%
    17:00 +6°C° 1.4 mm 10 mps 741 mmHg 83%
    18:00 +6°C° 1.4 mm 10 mps 739 mmHg 84%
    19:00 +7°C° 1.4 mm 10 mps 738 mmHg 85%
    20:00 +7°C° 0.5 mm 9 mps 738 mmHg 83%
    21:00 +7°C° 0.5 mm 8 mps 737 mmHg 81%
    22:00 +8°C° 0.5 mm 7 mps 736 mmHg 79%
    23:00 +6°C° 0 mm 7 mps 736 mmHg 78%

    Day after tomorrow, 24 October, Wednesday

    Time Temperature Precipitation Wind Pressure Humidity
    00:00 +6°C° 0 mm 7 mps 735 mmHg 78%
    01:00 +5°C° 0 mm 7 mps 734 mmHg 77%
    02:00 +5°C° 0.1 mm 8 mps 734 mmHg 75%
    03:00 +5°C° 0.1 mm 9 mps 734 mmHg 73%
    04:00 +3°C° 0.1 mm 10 mps 733 mmHg 71%
    05:00 +3°C° 0.4 mm 10 mps 734 mmHg 67%
    06:00 +2°C° 0.4 mm 10 mps 735 mmHg 63%
    07:00 +2°C° 0.4 mm 10 mps 735 mmHg 59%
    08:00 +3°C° 0.1 mm 10 mps 736 mmHg 63%
    09:00 +3°C° 0.1 mm 10 mps 737 mmHg 67%
    10:00 +5°C° 0.1 mm 10 mps 737 mmHg 71%
    11:00 +4°C° 0.2 mm 11 mps 738 mmHg 66%
    12:00 +5°C° 0.2 mm 12 mps 739 mmHg 61%
    13:00 +6°C° 0.2 mm 14 mps 739 mmHg 55%
    14:00 +5°C° 0.1 mm 13 mps 740 mmHg 57%
    15:00 +5°C° 0.1 mm 13 mps 741 mmHg 59%
    16:00 +4°C° 0.1 mm 13 mps 742 mmHg 61%
    17:00 +4°C° 0 mm 12 mps 743 mmHg 63%
    18:00 +4°C° 0 mm 11 mps 743 mmHg 65%
    19:00 +4°C° 0 mm 11 mps 744 mmHg 66%
    20:00 +5°C° 0 mm 10 mps 745 mmHg 67%
    21:00 +5°C° 0 mm 9 mps 746 mmHg 67%
    22:00 +5°C° 0 mm 9 mps 746 mmHg 67%
    23:00 +4°C° 0 mm 8 mps 747 mmHg 69%

    25 October, Thursday

    Time Temperature Precipitation Wind Pressure Humidity
    00:00 +4°C° 0 mm 8 mps 747 mmHg 70%
    01:00 +3°C° 0 mm 7 mps 748 mmHg 72%
    02:00 +3°C° 0 mm 7 mps 748 mmHg 72%
    03:00 +3°C° 0 mm 6 mps 748 mmHg 73%
    04:00 +2°C° 0 mm 6 mps 748 mmHg 74%
    05:00 +2°C° 0 mm 6 mps 748 mmHg 75%
    06:00 +2°C° 0 mm 6 mps 748 mmHg 75%
    07:00 +2°C° 0 mm 6 mps 749 mmHg 76%
    08:00 +3°C° 0 mm 6 mps 748 mmHg 75%
    09:00 +4°C° 0 mm 6 mps 748 mmHg 74%
    10:00 +5°C° 0 mm 6 mps 748 mmHg 73%
    11:00 +5°C° 0.6 mm 6 mps 747 mmHg 78%
    12:00 +5°C° 0.6 mm 7 mps 746 mmHg 82%
    13:00 +5°C° 0.6 mm 7 mps 745 mmHg 86%
    14:00 +6°C° 0.3 mm 7 mps 745 mmHg 86%
    15:00 +8°C° 0.3 mm 7 mps 745 mmHg 85%
    16:00 +9°C° 0.3 mm 8 mps 744 mmHg 84%
    17:00 +9°C° 0.2 mm 8 mps 744 mmHg 84%
    18:00 +9°C° 0.2 mm 8 mps 744 mmHg 85%
    19:00 +9°C° 0.2 mm 7 mps 744 mmHg 85%
    20:00 +9°C° 0.1 mm 7 mps 745 mmHg 84%
    21:00 +8°C° 0.1 mm 7 mps 745 mmHg 84%
    22:00 +8°C° 0.1 mm 6 mps 745 mmHg 83%
    23:00 +8°C° 0 mm 6 mps 745 mmHg 85%

    26 October, Friday

    Time Temperature Precipitation Wind Pressure Humidity
    00:00 +7°C° 0 mm 6 mps 745 mmHg 87%
    01:00 +7°C° 0 mm 6 mps 746 mmHg 89%
    02:00 +7°C° 0 mm 5 mps 746 mmHg 90%
    03:00 +8°C° 0 mm 5 mps 746 mmHg 90%
    04:00 +8°C° 0 mm 5 mps 746 mmHg 91%
    05:00 +8°C° 0 mm 5 mps 746 mmHg 91%
    06:00 +8°C° 0 mm 5 mps 746 mmHg 90%
    07:00 +8°C° 0 mm 5 mps 746 mmHg 90%
    08:00 +8°C° 0 mm 5 mps 746 mmHg 87%
    09:00 +9°C° 0 mm 6 mps 746 mmHg 84%
    10:00 +9°C° 0 mm 6 mps 746 mmHg 82%
    11:00 +9°C° 0 mm 6 mps 746 mmHg 78%
    12:00 +10°C° 0 mm 6 mps 745 mmHg 73%
    13:00 +10°C° 0 mm 7 mps 745 mmHg 69%
    14:00 +10°C° 0 mm 6 mps 745 mmHg 71%
    15:00 +10°C° 0 mm 5 mps 745 mmHg 73%
    16:00 +10°C° 0 mm 4 mps 745 mmHg 76%
    17:00 +10°C° 0 mm 4 mps 745 mmHg 76%
    18:00 +10°C° 0 mm 4 mps 745 mmHg 77%
    19:00 +10°C° 0 mm 4 mps 745 mmHg 77%
    20:00 +10°C° 0 mm 4 mps 745 mmHg 79%
    21:00 +8°C° 0 mm 4 mps 745 mmHg 80%
    22:00 +8°C° 0 mm 4 mps 744 mmHg 81%
    23:00 +9°C° 0 mm 3 mps 745 mmHg 83%

    27 October, Saturday

    Time Temperature Precipitation Wind Pressure Humidity
    00:00 +8°C° 0 mm 3 mps 745 mmHg 84%
    01:00 +8°C° 0 mm 3 mps 745 mmHg 86%
    02:00 +8°C° 0 mm 3 mps 745 mmHg 87%
    03:00 +8°C° 0 mm 2 mps 745 mmHg 89%
    04:00 +7°C° 0 mm 2 mps 745 mmHg 91%
    05:00 +7°C° 0 mm 2 mps 745 mmHg 92%
    06:00 +7°C° 0 mm 2 mps 745 mmHg 93%
    07:00 +7°C° 0 mm 2 mps 745 mmHg 94%
    08:00 +8°C° 0 mm 2 mps 744 mmHg 88%
    09:00 +9°C° 0 mm 2 mps 744 mmHg 83%
    10:00 +12°C° 0 mm 2 mps 744 mmHg 77%
    11:00 +11°C° 0 mm 3 mps 743 mmHg 75%
    12:00 +12°C° 0 mm 3 mps 742 mmHg 72%
    13:00 +13°C° 0 mm 4 mps 742 mmHg 69%
    14:00 +12°C° 0.5 mm 3 mps 741 mmHg 75%
    15:00 +12°C° 0.5 mm 3 mps 741 mmHg 81%
    16:00 +11°C° 0.5 mm 3 mps 740 mmHg 87%
    17:00 +11°C° 1.4 mm 3 mps 740 mmHg 89%
    18:00 +11°C° 1.4 mm 3 mps 740 mmHg 91%
    19:00 +11°C° 1.4 mm 3 mps 740 mmHg 93%
    20:00 +11°C° 0.2 mm 3 mps 740 mmHg 93%
    21:00 +10°C° 0.2 mm 3 mps 740 mmHg 92%
    22:00 +10°C° 0.2 mm 3 mps 741 mmHg 92%
    23:00 +9°C° 0.1 mm 3 mps 741 mmHg 91%

    28 October, Sunday

    Time Temperature Precipitation Wind Pressure Humidity
    00:00 +8°C° 0.1 mm 4 mps 742 mmHg 90%
    01:00 +7°C° 0.1 mm 4 mps 742 mmHg 90%
    02:00 +7°C° 0.1 mm 4 mps 742 mmHg 89%
    03:00 +7°C° 0.1 mm 4 mps 743 mmHg 88%
    04:00 +6°C° 0.1 mm 4 mps 743 mmHg 88%
    05:00 +6°C° 0.1 mm 4 mps 743 mmHg 87%
    06:00 +6°C° 0.1 mm 4 mps 744 mmHg 87%
    07:00 +6°C° 0.1 mm 4 mps 744 mmHg 87%
    08:00 +6°C° 0.6 mm 4 mps 744 mmHg 86%
    09:00 +6°C° 0.6 mm 4 mps 744 mmHg 86%
    10:00 +6°C° 0.6 mm 4 mps 745 mmHg 86%
    11:00 +6°C° 0.5 mm 4 mps 745 mmHg 85%
    12:00 +7°C° 0.5 mm 4 mps 745 mmHg 85%
    13:00 +7°C° 0.5 mm 4 mps 745 mmHg 85%
    14:00 +7°C° 0.6 mm 4 mps 745 mmHg 87%
    15:00 +7°C° 0.6 mm 4 mps 745 mmHg 88%
    16:00 +6°C° 0.6 mm 4 mps 745 mmHg 89%
    17:00 +6°C° 0.2 mm 4 mps 745 mmHg 90%
    18:00 +6°C° 0.2 mm 4 mps 745 mmHg 90%
    19:00 +6°C° 0.2 mm 4 mps 746 mmHg 91%
    20:00 +7°C° 0.1 mm 4 mps 746 mmHg 91%
    21:00 +8°C° 0.1 mm 3 mps 746 mmHg 91%
    22:00 +8°C° 0.1 mm 3 mps 746 mmHg 91%
    23:00 +8°C° 0.1 mm 3 mps 746 mmHg 92%
    Show more